Погода в Байгоровке

Россия / Оренбургская область     52°17′52″N   51°56′36″E
темп.,
°C
ветер,
м/с
пор.,
м/с
влажн.,
%
обл.,
%
осадки,
мм/ч
давл.,
гПа
погр.,
м
11 апреля, вс
вс1123:00+15юв92163100 0.3 1024477
02:00+12юв920825 0.0 1025464
05:00+10ююв91885100 0.0 1026397
08:00+9ююв91880100 0.0 1027378
11:00+13ююв8125996 0.0 1029501
14:00+18ююв7104683 0.0 1028761
17:00+19ююв78416 0.0 1029966
20:00+15юв485756 0.0 1029125
12 апреля, пн
пн1223:00+12юв486826 0.0 1031119
02:00+10юв367548 0.0 103190
05:00+8юв358088 0.0 103375
08:00+8юв2584100 0.0 103392
11:00+14юв4560100 0.0 1034387
14:00+18юв4445100 0.0 1033877
17:00+19вюв4442100 0.0 10331055
20:00+15вюв345784 0.0 103343
13 апреля, вт
вт1323:00+11вюв355699 0.0 103456
02:00+9вюв335458 0.0 103430
05:00+7вюв346232 0.0 103544
08:00+6вюв386755 0.0 1035164
11:00+12юв574454 0.0 1035472
14:00+16юв563031 0.0 1034825
17:00+17юв552818 0.0 1033954
20:00+13вюв45467 0.0 103258
14 апреля, ср
ср1423:00+10вюв34525 0.0 103252
02:00+8юв335710 0.0 103231
05:00+6вюв33695 0.0 103227
08:00+7вюв35805 0.0 1031110
11:00+14вюв46655 0.0 1030555
14:00+17юв45491 0.0 10281062
17:00+18вюв44450 0.0 10261239
20:00+15вюв22580 0.0 102516
15 апреля, чт
чт1523:00+12в22670 0.0 102412
02:00+11в22700 0.0 102314
05:00+9в22740 0.0 102318
08:00+9в35720 0.0 1022100
11:00+15вюв46460 0.0 1021588
14:00+17юв45440 0.0 10191158
17:00+18ююв34440 0.0 10181484
20:00+15юв22575 0.0 101617